Lid_Strength_Index
1 1 2 7 14 15 16 14 10 11 11 9 8 8 9 8 8 11 5 2 1 1 -0 -0 -0 -1 -1 -1 -1 -1 -1 -1 -1 -1 -1 -1 -1 -1 -1 -1 -1 -1 -1 -1 -1 -1 -1 -1 -1
2 2 5 11 16 19 17 13 12 10 9 8 8 8 9 8 7 5 4 2 1 0 -0 -0 0 -0 -1 -1 -1 -1 -1 -1 -1 -1 -1 -1 -1 -1 -1 -1 -1 -1 -1 -1 -1 -1 -1 -1 -1
0 1 9 14 17 18 17 13 11 10 8 9 9 8 8 8 6 4 3 1 1 1 -0 -0 0 -0 -0 -0 -1 -1 -1 -1 -1 -1 -1 -1 -1 -1 -1 -1 -1 -1 -1 -1 -1 -1 -1 -1 -1
2 6 8 14 16 15 14 13 10 11 9 9 9 10 9 5 5 3 2 1 2 1 0 0 -0 -0 -0 -0 -1 -1 -1 -1 -1 -1 -1 -1 -1 -1 -1 -1 -1 -1 -1 -1 -1 -1 -1 -1 -1
5 8 13 15 14 13 12 11 10 10 10 9 10 10 10 7 3 2 2 2 2 1 0 -0 0 -0 -0 -0 -1 -1 -1 -1 -1 -1 -1 -1 -1 -1 -1 -1 -1 -1 -1 -1 -1 -1 -1 -1 -1
8 10 15 15 13 11 10 9 10 10 10 9 11 11 10 7 3 3 3 2 2 1 0 -0 1 1 0 -0 -0 -0 -0 -1 -1 -1 -1 -1 -1 -1 -1 -1 -1 -1 -0 -0 -0 0 1 -0 -0
9 12 13 13 13 12 11 8 9 9 9 10 8 11 10 9 6 3 3 3 1 1 1 0 -0 0 1 1 1 0 -0 -0 -0 -0 -0 -0 -0 -1 -1 -1 -1 -0 -0 0 0 1 2 1 1
7 9 13 12 13 13 9 8 7 8 8 6 6 10 11 8 5 3 3 2 2 1 1 1 0 0 0 0 2 1 1 0 1 0 1 1 1 0 0 1 0 0 0 1 1 2 2 1 1
7 12 14 13 12 11 9 9 7 6 7 6 7 8 8 4 2 3 4 4 4 3 1 1 1 0 1 1 2 2 2 1 2 2 3 2 1 2 2 2 1 0 1 1 2 3 2 2 2
9 12 12 9 9 10 9 9 9 8 8 8 8 7 7 4 4 4 5 5 4 4 3 1 1 1 1 1 2 1 1 1 1 1 2 2 3 3 3 3 2 2 2 2 3 3 3 6 9
9 12 9 9 8 7 8 9 8 9 10 9 10 8 7 6 4 4 4 4 4 3 2 1 1 0 1 2 1 1 1 1 2 2 3 3 4 4 5 4 4 5 5 5 6 6 6 7 9
13 11 10 8 7 7 8 7 8 9 9 7 7 7 7 7 4 5 4 4 3 3 2 2 1 1 1 1 1 2 2 2 2 3 3 4 4 5 6 6 7 7 8 9 10 9 8 8 8
13 12 10 10 10 11 10 10 9 9 7 6 7 6 6 7 6 5 3 3 3 3 2 2 1 1 2 2 2 2 2 2 2 3 3 4 5 5 6 6 7 8 9 10 11 9 8 8 8
11 11 11 11 11 11 12 12 11 10 7 7 7 8 7 7 6 5 5 4 3 3 2 2 2 2 2 2 2 2 2 3 2 3 4 4 5 5 6 6 7 9 9 10 10 8 8 8 8
10 14 12 12 12 12 11 13 13 10 8 8 8 8 7 6 6 6 4 4 3 2 2 2 1 2 2 2 2 2 2 2 3 4 4 5 5 6 6 7 8 9 10 10 10 8 8 8 8
11 12 16 13 11 11 12 16 12 9 10 9 8 8 8 7 7 6 6 5 3 2 2 2 1 2 2 2 2 2 2 2 3 4 5 5 5 6 7 7 8 9 8 8 9 8 9 9 9
12 15 14 14 10 11 13 15 12 10 10 11 9 8 7 7 7 6 6 6 3 2 2 2 1 2 2 2 2 2 2 3 3 3 4 6 6 7 7 8 8 8 9 8 8 9 9 10 10
15 14 13 14 12 11 13 13 11 11 11 12 10 9 7 8 7 5 6 6 5 2 2 2 2 2 2 2 3 3 3 3 3 3 4 5 5 7 7 8 8 8 9 9 9 9 9 10 10
12 13 14 12 9 11 13 12 12 11 11 12 12 10 8 7 6 6 6 5 5 2 2 2 2 2 2 3 4 4 4 4 4 4 4 5 6 7 8 8 9 8 9 9 9 10 10 10 11
12 14 14 12 10 11 11 12 11 12 12 12 12 11 10 9 7 6 5 6 5 3 3 2 2 2 2 2 3 4 4 4 4 4 5 5 7 6 7 8 8 9 9 9 10 10 11 10 10
12 14 14 14 12 11 12 14 12 10 11 11 11 10 10 10 9 8 7 6 5 3 3 3 2 2 2 2 3 3 3 4 5 6 6 6 7 6 6 7 8 8 8 9 9 10 10 11 11
15 10 11 13 14 18 12 19 14 12 13 11 11 11 11 10 9 8 8 6 6 4 3 2 2 2 2 2 3 3 4 5 5 6 6 6 6 7 7 6 7 8 8 8 9 9 10 10 10
13 10 12 12 15 16 16 19 16 12 14 13 12 11 11 10 9 8 8 7 5 5 3 3 2 2 2 2 2 2 3 3 4 5 6 6 7 7 7 6 7 8 8 8 9 10 10 10 11
10 12 13 14 18 22 17 18 18 16 14 12 10 10 9 9 8 8 6 6 4 4 4 5 4 2 2 2 2 3 3 3 4 5 6 6 7 7 7 7 7 7 7 7 8 9 9 9 10
13 15 22 25 27 25 15 16 16 13 12 11 10 9 9 8 8 8 8 8 7 6 5 5 4 3 3 3 3 3 2 3 3 4 5 6 7 7 7 7 8 7 7 7 8 8 10 9 10
16 15 19 24 23 21 15 20 16 13 12 11 9 9 9 9 9 11 11 10 10 10 10 9 9 5 3 2 3 3 2 2 3 3 4 5 6 6 6 7 7 7 7 7 7 9 9 10 10
15 20 14 18 21 21 19 15 14 13 14 13 12 10 10 11 10 10 11 11 12 11 11 11 10 10 10 9 4 3 3 3 3 3 3 4 5 5 6 7 7 7 7 8 8 8 11 11 11
13 11 20 22 25 27 21 20 21 18 17 15 15 13 12 11 11 11 11 11 10 11 12 11 11 12 12 12 10 6 2 3 3 4 4 4 4 6 7 10 11 11 11 10 10 11 12 12 13
16 18 16 17 19 25 23 23 16 18 17 17 16 13 12 12 13 12 11 11 11 11 12 13 12 11 11 11 10 9 8 3 3 3 5 8 11 10 10 11 12 12 12 12 11 11 11 11 12
13 15 15 21 24 22 21 22 15 16 15 16 16 14 13 14 14 13 12 12 12 12 13 12 11 11 10 11 10 10 9 8 8 7 9 9 8 10 10 11 11 11 12 12 11 12 12 11 12